[[{"header":{"parameterUnit":"m.s-1","parameterCategory":1,"la1":30.2991,"la2":30.254,"lo1":-89.0895,"lo2":-89.0444,"dy":0.0017,"dx":0.0017,"nx":28,"ny":28,"refTime":"2023-09-08T03:00:00:Z","depth":0,"parameterNumber":2,"parameterNumberName":"U-component_of_WINDS"},"data":[0,0,0,0,0,0,0,0,0,0,0,0,0,0,0,0,0,0,0,0,0,0,0,0,0,0,0,0,0,0,0,0,0,0,0,0,0,0,0,0,0,0,0,0,0,0,0,0,0,0,0,0,0,0,0,0,0,0,-0.3355,-0.3355,0,-0.333,-0.333,-0.333,-0.3293,-0.3292,-0.3292,-0.3291,-0.3266,-0.3266,-0.3266,0,0,0,0,0,0,0,0,0,0,0,0,0,-0.3373,-0.3372,-0.3356,-0.3355,-0.3355,-0.333,-0.333,-0.3329,-0.3293,-0.3292,-0.3292,-0.3291,-0.3266,-0.3266,-0.3266,0,0,0,0,0,0,0,0,0,0,0,0,0,-0.3358,-0.3372,-0.3356,-0.3334,-0.3332,-0.333,-0.333,-0.3329,-0.3293,-0.3292,-0.3291,-0.329,-0.3266,-0.3266,-0.3266,-0.3284,0,0,-0.3265,-0.3265,0,0,0,0,0,0,0,0,-0.3359,-0.3357,-0.3337,-0.3335,-0.3333,-0.3314,-0.3326,-0.3314,-0.3293,-0.3308,-0.3291,-0.329,-0.3283,-0.3281,-0.3278,-0.3283,-0.3282,-0.3265,-0.3265,-0.3265,-0.3265,0,0,0,0,0,0,0,-0.336,-0.3358,-0.3345,-0.3337,-0.3334,-0.3325,-0.3322,-0.3324,-0.3301,-0.3307,-0.3304,-0.3301,-0.3281,-0.3279,-0.3278,-0.3281,-0.3265,-0.3265,-0.3265,-0.3265,-0.3299,-0.33,0,0,0,0,0,0,-0.3364,-0.3359,-0.3346,-0.3345,-0.3344,-0.3326,-0.3322,-0.3321,-0.3301,-0.3297,-0.3302,-0.33,-0.3279,-0.3278,-0.3277,-0.3297,-0.3265,-0.3265,-0.3265,-0.3298,-0.3299,-0.33,0,0,0,0,0,0,-0.3365,-0.3363,-0.3347,-0.3351,-0.3349,-0.3326,-0.3325,-0.3321,-0.3318,-0.3297,-0.3293,-0.3304,-0.3278,-0.3277,-0.3282,-0.3295,-0.3265,-0.3265,-0.3297,-0.3298,-0.33,-0.3337,0,0,0,0,0,0,-0.3365,-0.3364,-0.3371,-0.3352,-0.3348,-0.3354,-0.3326,-0.3321,-0.3318,-0.3315,-0.3298,-0.3294,-0.3278,-0.3283,-0.3282,-0.3294,-0.3265,-0.3295,-0.3297,-0.3299,-0.3335,-0.334,-0.3344,0,0,0,0,0,-0.3366,-0.3382,-0.3371,-0.337,-0.3357,-0.3354,-0.3353,-0.3333,-0.3319,-0.3326,-0.3312,-0.3295,-0.3294,-0.3283,-0.3283,-0.3295,-0.3295,-0.3297,-0.3299,-0.3332,-0.3339,-0.3344,0,0,0,0,0,0,-0.3404,-0.338,-0.3367,-0.3377,-0.3368,-0.3348,-0.3356,-0.334,-0.3335,-0.3332,-0.3308,-0.3305,-0.3313,-0.3304,-0.3294,-0.3311,-0.3291,-0.3293,-0.3317,-0.3323,-0.3327,-0.333,-0.3265,0,0,0,0,0,-0.3413,-0.3414,-0.3392,-0.3404,-0.34,-0.3379,-0.3377,-0.3363,-0.3352,-0.3348,-0.3335,-0.3326,-0.3323,-0.3322,-0.3319,-0.3332,-0.3328,-0.3341,-0.3345,-0.3349,-0.3352,-0.3358,-0.3363,-0.3307,-0.3307,-0.3307,0,0,-0.3433,-0.342,-0.3422,-0.3411,-0.3402,-0.3403,-0.3376,-0.3378,-0.3378,-0.3349,-0.3353,-0.3343,-0.3331,-0.3341,-0.3344,-0.3334,-0.3366,-0.3352,-0.3355,-0.3356,-0.3361,-0.3366,-0.3371,-0.3309,-0.3308,-0.3308,0,0,-0.347,-0.346,-0.3468,-0.346,-0.3446,-0.3432,-0.3434,-0.3416,-0.3408,-0.3412,-0.339,-0.339,-0.3386,-0.3378,-0.3374,-0.3406,-0.339,-0.3406,-0.3431,-0.3437,-0.3442,-0.3446,-0.3458,-0.3462,-0.3408,-0.3408,-0.3408,0,-0.3497,-0.3497,-0.3475,-0.3478,-0.3474,-0.3446,-0.3455,-0.3447,-0.3434,-0.3432,-0.342,-0.3414,-0.3404,-0.3411,-0.3419,-0.3416,-0.3418,-0.3408,-0.3443,-0.3446,-0.345,-0.3461,-0.3465,-0.341,-0.341,-0.341,-0.341,0,-0.353,-0.3531,-0.3539,-0.3526,-0.3523,-0.3529,-0.3508,-0.3507,-0.3492,-0.3479,-0.3483,-0.347,-0.3463,-0.3464,-0.345,-0.3469,-0.3463,-0.3447,-0.3427,-0.3458,-0.3468,-0.3472,-0.3413,-0.3413,-0.3412,-0.3411,0,0,-0.3592,-0.3566,-0.3569,-0.3563,-0.3546,-0.3546,-0.355,-0.3543,-0.3543,-0.3534,-0.3537,-0.3534,-0.3519,-0.3514,-0.3499,-0.3504,-0.3531,-0.3488,-0.3487,-0.3497,-0.3552,-0.3564,-0.357,-0.352,-0.352,-0.3521,-0.3553,0,-0.3626,-0.3632,-0.3612,-0.3623,-0.3623,-0.3596,-0.36,-0.359,-0.3577,-0.3575,-0.3561,-0.356,-0.354,-0.3537,-0.3541,-0.3527,-0.3542,-0.3524,-0.3523,-0.3523,-0.3528,-0.3575,-0.3588,-0.3619,-0.3557,-0.3557,-0.3558,0,-0.3667,-0.366,-0.3671,-0.3653,-0.3652,-0.3656,-0.3647,-0.3646,-0.3633,-0.3624,-0.3618,-0.36,-0.3602,-0.3582,-0.3585,-0.3574,-0.3572,-0.3564,-0.3565,-0.3565,-0.3543,-0.3577,-0.3629,-0.3634,-0.3564,-0.3563,-0.3563,0,-0.3711,-0.3705,-0.371,-0.3706,-0.3684,-0.3687,-0.3679,-0.3665,-0.3662,-0.3654,-0.3652,-0.3645,-0.3642,-0.3636,-0.3617,-0.3604,-0.3623,-0.36,-0.3615,-0.3616,-0.3622,-0.3622,-0.3675,-0.3619,-0.3619,-0.3618,-0.3618,0,-0.3752,-0.3761,-0.373,-0.3734,-0.3742,-0.3718,-0.3727,-0.3715,-0.3703,-0.3704,-0.368,-0.3681,-0.3655,-0.3653,-0.3638,-0.3643,-0.3641,-0.3634,-0.363,-0.3637,-0.3638,-0.3636,-0.3634,-0.362,-0.3619,-0.3619,-0.3619,0,-0.3804,-0.3784,-0.3789,-0.3767,-0.3762,-0.3769,-0.3751,-0.3753,-0.3739,-0.374,-0.3739,-0.3717,-0.3713,-0.3693,-0.3685,-0.3674,-0.3686,-0.3677,-0.369,-0.3688,-0.3704,-0.3703,-0.3758,-0.3764,-0.3704,-0.3704,-0.3705,0,-0.3832,-0.3838,-0.3817,-0.3816,-0.3808,-0.3806,-0.3803,-0.3779,-0.3776,-0.3762,-0.3766,-0.376,-0.3755,-0.3751,-0.3734,-0.3727,-0.3719,-0.3739,-0.3718,-0.3724,-0.372,-0.372,-0.3721,-0.3744,-0.3744,-0.3745,-0.3745,0,-0.3884,-0.3874,-0.387,-0.3862,-0.3858,-0.3851,-0.3842,-0.3842,-0.3816,-0.3814,-0.381,-0.3806,-0.3797,-0.3792,-0.3783,-0.3773,-0.3755,-0.3752,-0.3755,-0.3763,-0.377,-0.3767,-0.3703,-0.3751,-0.3751,-0.375,-0.375,-0.375,-0.3925,-0.3929,-0.3915,-0.3911,-0.3901,-0.3894,-0.3895,-0.388,-0.3876,-0.3868,-0.3853,-0.3852,-0.3838,-0.3823,-0.3815,-0.3813,-0.3803,-0.3807,-0.3809,-0.381,-0.3814,-0.377,-0.3811,-0.3811,-0.3811,-0.3811,-0.3811,0,-0.3977,-0.3966,-0.3963,-0.3951,-0.3948,-0.393,-0.3919,-0.3917,-0.3916,-0.3905,-0.39,-0.3895,-0.389,-0.3871,-0.3864,-0.3866,-0.3858,-0.3865,-0.3865,-0.3864,-0.3824,-0.3822,-0.3872,-0.3872,-0.3872,-0.3872,-0.3872,-0.3872,-0.4004,-0.4009,-0.3996,-0.3997,-0.3985,-0.3983,-0.3979,-0.3971,-0.3962,-0.3958,-0.3953,-0.3941,-0.3927,-0.3918,-0.3913,-0.3907,-0.3906,-0.3917,-0.3909,-0.3872,-0.3866,-0.3861,-0.3859,-0.3917,-0.3917,-0.3949,-0.3949,-0.395]},{"header":{"parameterUnit":"m.s-1","parameterCategory":1,"la1":30.2991,"la2":30.254,"lo1":-89.0895,"lo2":-89.0444,"dy":0.0017,"dx":0.0017,"nx":28,"ny":28,"refTime":"2023-09-08T03:00:00:Z","depth":0,"parameterNumber":3,"parameterNumberName":"V-component_of_WINDS"},"data":[0,0,0,0,0,0,0,0,0,0,0,0,0,0,0,0,0,0,0,0,0,0,0,0,0,0,0,0,0,0,0,0,0,0,0,0,0,0,0,0,0,0,0,0,0,0,0,0,0,0,0,0,0,0,0,0,0,0,-2.9783,-2.9784,0,-2.984,-2.9841,-2.9841,-2.9818,-2.9816,-2.9815,-2.9814,-2.9869,-2.9871,-2.9874,0,0,0,0,0,0,0,0,0,0,0,0,0,-2.9651,-2.9654,-2.9783,-2.9784,-2.9784,-2.984,-2.9841,-2.9841,-2.9818,-2.9816,-2.9814,-2.9813,-2.9868,-2.9871,-2.9874,0,0,0,0,0,0,0,0,0,0,0,0,0,-2.9708,-2.9655,-2.9783,-2.9779,-2.978,-2.984,-2.9841,-2.9842,-2.9818,-2.9816,-2.9814,-2.9812,-2.9867,-2.9871,-2.9875,-2.9941,0,0,-2.9887,-2.9889,0,0,0,0,0,0,0,0,-2.9705,-2.9713,-2.9779,-2.978,-2.978,-2.982,-2.9814,-2.9875,-2.9819,-2.9803,-2.9814,-2.9811,-2.9854,-2.9859,-2.9874,-2.9943,-2.9946,-2.9888,-2.989,-2.9892,-2.9893,0,0,0,0,0,0,0,-2.9701,-2.9711,-2.9805,-2.978,-2.9781,-2.9774,-2.978,-2.9826,-2.9839,-2.9805,-2.9803,-2.981,-2.9854,-2.987,-2.9875,-2.9946,-2.9888,-2.9891,-2.9894,-2.9895,-3.0074,-3.0076,0,0,0,0,0,0,-2.9698,-2.9708,-2.9803,-2.9807,-2.9737,-2.9778,-2.9785,-2.9809,-2.9839,-2.9841,-2.9812,-2.9809,-2.9864,-2.987,-2.9877,-2.9957,-2.9892,-2.9896,-2.9898,-3.0072,-3.0074,-3.0077,0,0,0,0,0,0,-2.9695,-2.9706,-2.9801,-2.9757,-2.9769,-2.9783,-2.981,-2.9811,-2.9827,-2.9844,-2.9846,-2.9826,-2.9863,-2.9871,-2.9926,-2.9959,-2.9898,-2.9901,-3.0069,-3.0072,-3.0076,-3.0118,0,0,0,0,0,0,-2.9691,-2.9706,-2.9731,-2.9758,-2.9771,-2.985,-2.9812,-2.9814,-2.9835,-2.9832,-2.9858,-2.9861,-2.9862,-2.992,-2.993,-2.9963,-2.9904,-3.0066,-3.007,-3.0074,-3.0113,-3.0122,-3.013,0,0,0,0,0,-2.9687,-2.974,-2.9733,-2.9744,-2.9804,-2.9852,-2.9859,-2.986,-2.9838,-2.9863,-2.9874,-2.986,-2.9953,-2.9925,-2.9936,-2.9972,-3.0064,-3.0069,-3.0074,-3.011,-3.012,-3.0129,0,0,0,0,0,0,-2.9715,-2.9743,-2.9736,-2.9799,-2.9824,-2.9848,-2.988,-2.9871,-2.9902,-2.9897,-2.9896,-2.9902,-2.9959,-2.997,-2.9939,-3.0038,-3.0005,-3.0013,-3.0028,-3.0039,-3.0046,-3.0043,-2.9908,0,0,0,0,0,-2.9729,-2.9767,-2.9789,-2.9843,-2.9855,-2.9866,-2.9887,-2.9886,-2.991,-2.992,-2.9935,-2.9959,-2.9994,-3.0016,-3.0049,-3.0114,-3.012,-3.0144,-3.0152,-3.0159,-3.0166,-3.0203,-3.0214,-3.0094,-3.0094,-3.0094,0,0,-2.9758,-2.9778,-2.9802,-2.9849,-2.9868,-2.9907,-2.9875,-2.9916,-2.9945,-2.9926,-2.9979,-2.9991,-3.0017,-3.0078,-3.0105,-3.0089,-3.02,-3.0166,-3.0171,-3.0174,-3.0209,-3.022,-3.0231,-3.0097,-3.0097,-3.0096,0,0,-2.9831,-2.9849,-2.9897,-2.9917,-2.9946,-2.9953,-2.9965,-2.9991,-2.9998,-3.0052,-3.0039,-3.0072,-3.0131,-3.0151,-3.0169,-3.0251,-3.0239,-3.0261,-3.0304,-3.034,-3.0349,-3.0358,-3.0388,-3.0399,-3.0268,-3.0268,-3.0268,0,-2.9863,-2.9922,-2.9922,-2.9966,-2.9988,-2.9974,-3.0022,-3.0041,-3.0079,-3.0094,-3.0075,-3.0151,-3.0168,-3.0234,-3.0254,-3.0268,-3.0281,-3.0259,-3.0348,-3.0356,-3.0364,-3.0393,-3.0404,-3.0271,-3.027,-3.027,-3.027,0,-2.996,-3.0001,-3.0036,-3.0075,-3.01,-3.0146,-3.0153,-3.0179,-3.0175,-3.0184,-3.0239,-3.0258,-3.0295,-3.0311,-3.0307,-3.0376,-3.0366,-3.0348,-3.0315,-3.0378,-3.0406,-3.0416,-3.0274,-3.0273,-3.0273,-3.0272,0,0,-3.0053,-3.0093,-3.0106,-3.0124,-3.0155,-3.0187,-3.0232,-3.027,-3.0292,-3.0318,-3.0356,-3.0408,-3.0392,-3.0412,-3.0411,-3.0442,-3.0507,-3.042,-3.0421,-3.0437,-3.0586,-3.06,-3.0613,-3.0499,-3.0501,-3.0503,-3.0584,0,-3.0129,-3.021,-3.0212,-3.0286,-3.0324,-3.0311,-3.0351,-3.0374,-3.0383,-3.0417,-3.0426,-3.0463,-3.0439,-3.0451,-3.0481,-3.0493,-3.0537,-3.0487,-3.0534,-3.0536,-3.053,-3.0627,-3.0642,-3.0718,-3.0595,-3.0596,-3.0598,0,-3.0229,-3.0261,-3.0339,-3.0367,-3.0383,-3.0418,-3.0454,-3.0485,-3.0512,-3.0516,-3.054,-3.0534,-3.058,-3.0545,-3.0608,-3.0574,-3.0593,-3.0602,-3.0605,-3.061,-3.0572,-3.0636,-3.0742,-3.0754,-3.0614,-3.0613,-3.0612,0,-3.0291,-3.0353,-3.0408,-3.0423,-3.0457,-3.0482,-3.0497,-3.0521,-3.0544,-3.0575,-3.059,-3.0624,-3.0644,-3.0671,-3.0674,-3.0648,-3.0738,-3.0703,-3.0744,-3.0744,-3.0764,-3.0763,-3.0876,-3.0774,-3.0774,-3.0774,-3.0774,0,-3.0376,-3.0425,-3.0436,-3.047,-3.0524,-3.0526,-3.0579,-3.0592,-3.0614,-3.065,-3.064,-3.0674,-3.0676,-3.071,-3.0713,-3.0766,-3.0774,-3.0779,-3.078,-3.0781,-3.0781,-3.0795,-3.079,-3.0777,-3.0776,-3.0776,-3.0775,0,-3.0455,-3.0464,-3.0524,-3.0551,-3.0559,-3.0598,-3.062,-3.0653,-3.0661,-3.0707,-3.0718,-3.0731,-3.0771,-3.0777,-3.0823,-3.0825,-3.0889,-3.0883,-3.0881,-3.0881,-3.0921,-3.0918,-3.1048,-3.1066,-3.0951,-3.0952,-3.0953,0,-3.051,-3.0547,-3.0579,-3.0603,-3.062,-3.0658,-3.0682,-3.0685,-3.071,-3.0744,-3.0772,-3.0812,-3.0844,-3.0909,-3.0922,-3.0957,-3.0953,-3.0996,-3.0958,-3.0959,-3.0956,-3.0954,-3.0958,-3.1004,-3.1005,-3.1006,-3.1007,0,-3.0606,-3.061,-3.0645,-3.0683,-3.0712,-3.0742,-3.0769,-3.0789,-3.0796,-3.0825,-3.0867,-3.0892,-3.094,-3.098,-3.1016,-3.103,-3.102,-3.1019,-3.103,-3.1033,-3.1031,-3.1034,-3.0902,-3.1016,-3.1015,-3.1015,-3.1014,-3.1014,-3.0676,-3.0709,-3.0737,-3.0777,-3.0799,-3.0825,-3.0858,-3.0871,-3.0906,-3.0947,-3.0946,-3.0993,-3.1019,-3.1066,-3.1083,-3.1119,-3.1104,-3.1121,-3.1125,-3.1129,-3.1134,-3.1024,-3.1125,-3.1124,-3.1124,-3.1124,-3.1124,0,-3.0773,-3.0791,-3.0828,-3.0868,-3.09,-3.0889,-3.0919,-3.0947,-3.0988,-3.1013,-3.1046,-3.1094,-3.1133,-3.1149,-3.1187,-3.1213,-3.1209,-3.1223,-3.1221,-3.1225,-3.1144,-3.1131,-3.1225,-3.1225,-3.1225,-3.1225,-3.1225,-3.1225,-3.0828,-3.0884,-3.0891,-3.0958,-3.0975,-3.1022,-3.104,-3.1064,-3.1085,-3.114,-3.1173,-3.1184,-3.1206,-3.1246,-3.128,-3.1284,-3.1299,-3.1315,-3.1317,-3.1241,-3.1231,-3.1221,-3.1209,-3.1318,-3.1318,-3.1395,-3.1396,-3.1397]}]]